{"data":{"norad_id":49019,"epoch":"2026-05-25T05:00:31.891680Z","epoch_age_seconds":53444,"freshness":"FRESH","line1":"1 49019U 21064B   26145.20870245  .00000052  00000+0  10649-3 0  9991","line2":"2 49019  45.0041 331.1426 0006470 131.0749 229.0648 14.08547451251009","mean_motion":14.08547451,"eccentricity":0.000647,"inclination_deg":45.0041,"raan_deg":331.1426,"arg_perigee_deg":131.0749,"mean_anomaly_deg":229.0648,"bstar":0.00010649,"rev_number":25100,"period_min":102.2329775953,"perigee_km":859.66070498803,"apogee_km":869.03247875591,"semimajor_km":7242.483591872,"source":"CELESTRAK","updated_at":"2026-05-25T13:37:57.013374Z"}}